UAE12 EGCC-EGLL

Flight info

Callsign UAE12
Flight time N/A
Altitude 17000
Route LISTO L612 HON
Aircraft A388/J-SADE2E3FGHIJ3J4J5M1RWXY/LB1D1

Departure

Time 2026-05-05 17:58
Airport Manchester Airport (EGCC)

Arrival

Time N/A
Airport London Heathrow Airport (EGLL)
Time Latitude Longitude Altitude Speed Heading
2026-05-05 17:41 53.36630 -2.28249 260 ft 0 kts 315°
2026-05-05 17:48 53.36619 -2.28230 261 ft 4 kts 315°
2026-05-05 17:48 53.36600 -2.28198 265 ft 4 kts 315°
2026-05-05 17:48 53.36581 -2.28166 263 ft 4 kts 315°
2026-05-05 17:48 53.36567 -2.28143 267 ft 0 kts 315°
2026-05-05 17:50 53.36569 -2.28145 264 ft 1 kts 311°
2026-05-05 17:51 53.36573 -2.28155 264 ft 2 kts 287°
2026-05-05 17:51 53.36574 -2.28170 266 ft 1 kts 254°
2026-05-05 17:51 53.36562 -2.28205 260 ft 6 kts 226°
2026-05-05 17:51 53.36526 -2.28247 260 ft 8 kts 213°
2026-05-05 17:52 53.36489 -2.28293 260 ft 12 kts 223°
2026-05-05 17:52 53.36390 -2.28435 260 ft 14 kts 198°
2026-05-05 17:52 53.36296 -2.28387 260 ft 17 kts 142°
2026-05-05 17:52 53.36231 -2.28275 260 ft 7 kts 134°
2026-05-05 17:53 53.36200 -2.28222 260 ft 12 kts 135°
2026-05-05 17:53 53.36134 -2.28113 260 ft 13 kts 138°
2026-05-05 17:53 53.36050 -2.27996 260 ft 18 kts 140°
2026-05-05 17:53 53.35947 -2.27874 260 ft 18 kts 165°
2026-05-05 17:54 53.35866 -2.27833 259 ft 0 kts 148°
2026-05-05 17:54 53.35856 -2.27827 258 ft 2 kts 186°
2026-05-05 17:54 53.35821 -2.27850 256 ft 10 kts 195°
2026-05-05 17:54 53.35723 -2.27876 251 ft 18 kts 187°
2026-05-05 17:55 53.35578 -2.27903 243 ft 24 kts 186°
2026-05-05 17:55 53.35424 -2.27991 242 ft 23 kts 217°
2026-05-05 17:55 53.35298 -2.28175 238 ft 25 kts 225°
2026-05-05 17:55 53.35185 -2.28401 237 ft 26 kts 231°
2026-05-05 17:56 53.35069 -2.28639 236 ft 25 kts 228°
2026-05-05 17:56 53.34952 -2.28845 234 ft 23 kts 225°
2026-05-05 17:56 53.34841 -2.29054 228 ft 22 kts 227°
2026-05-05 17:56 53.34749 -2.29230 219 ft 22 kts 229°
2026-05-05 17:57 53.34702 -2.29301 220 ft 3 kts 211°
2026-05-05 17:57 53.34656 -2.29330 219 ft 10 kts 186°
2026-05-05 17:57 53.34576 -2.29320 218 ft 12 kts 156°
2026-05-05 17:57 53.34553 -2.29221 224 ft 10 kts 65°
2026-05-05 17:58 53.34783 -2.28726 234 ft 110 kts 51°
2026-05-05 17:58 53.35415 -2.27440 634 ft 157 kts 49°
2026-05-05 17:58 53.36150 -2.26040 1700 ft 156 kts 49°
2026-05-05 17:58 53.36831 -2.24624 2565 ft 164 kts 51°
2026-05-05 17:59 53.37564 -2.23010 3015 ft 183 kts 58°
2026-05-05 17:59 53.37864 -2.20835 3285 ft 211 kts 94°
2026-05-05 17:59 53.37281 -2.18455 3906 ft 239 kts 126°
2026-05-05 17:59 53.35903 -2.16667 4640 ft 264 kts 155°
2026-05-05 18:00 53.34078 -2.16144 5780 ft 268 kts 182°
2026-05-05 18:00 53.32229 -2.16683 6896 ft 272 kts 193°
2026-05-05 18:00 53.30337 -2.17283 7868 ft 281 kts 190°
2026-05-05 18:00 53.28363 -2.17706 8905 ft 287 kts 188°
2026-05-05 18:01 53.26361 -2.18042 9993 ft 293 kts 188°
2026-05-05 18:01 53.24310 -2.18361 10695 ft 309 kts 187°
2026-05-05 18:01 53.22091 -2.18704 11113 ft 331 kts 187°
2026-05-05 18:01 53.19731 -2.19071 11653 ft 345 kts 187°
2026-05-05 18:02 53.17313 -2.19444 12560 ft 349 kts 187°
2026-05-05 18:02 53.14881 -2.19463 13397 ft 356 kts 175°
2026-05-05 18:02 53.12428 -2.18601 14263 ft 363 kts 163°
2026-05-05 18:02 53.10100 -2.17025 15055 ft 366 kts 158°
2026-05-05 18:03 53.07743 -2.15356 15835 ft 370 kts 159°
2026-05-05 18:03 53.05350 -2.13688 16609 ft 374 kts 159°
2026-05-05 18:03 53.02930 -2.12014 16963 ft 378 kts 159°
2026-05-05 18:03 53.00440 -2.10300 17014 ft 397 kts 159°
2026-05-05 18:04 52.97846 -2.08520 17003 ft 419 kts 159°
2026-05-05 18:04 52.95091 -2.06630 17007 ft 434 kts 159°
2026-05-05 18:04 52.92290 -2.04705 17007 ft 437 kts 159°
2026-05-05 18:04 52.89464 -2.02763 17008 ft 437 kts 159°
2026-05-05 18:05 52.86689 -2.00859 17000 ft 436 kts 159°
2026-05-05 18:05 52.83872 -1.98930 16999 ft 436 kts 159°
2026-05-05 18:05 52.81052 -1.97003 16998 ft 436 kts 159°
2026-05-05 18:05 52.78275 -1.95110 16999 ft 436 kts 159°
2026-05-05 18:06 52.76625 -1.93986 17001 ft 436 kts 159°